User: anonymous
Location: Unspecified
(0.0000°N, 0.0000°E)
Time: 04:14:34
(UTC+02:00)
Language:

Cosmos 1536 - Orbit

View from above orbital plane
View from above orbital plane
View from above satellite
View from above satellite

Ground track
Ground track

The orbit data is extracted from the following two-line orbital elements,

1 14699U 84013A   14245.48845920  .00001610  00000-0  11954-3 0  1657
2 14699 082.5250 234.4670 0011502 285.9225 074.0732 15.02359069659958
Epoch (UTC): 02 September 2014 11:43:22
Eccentricity: 0.0011502
inclination: 82.5250°
perigee height: 551 km
apogee height: 567 km
right ascension of ascending node: 234.4670°
argument of perigee: 285.9225°
revolutions per day: 15.02359069
mean anomaly at epoch: 74.0732°
orbit number at epoch: 65995

The dashed part of the orbit path shows where the satellite is in the earth's shadow,  

DLR